| time (UTC) | temp F | wind direction | speed MPH | gust MPH | rain 1hr in | rain 24hr in | rain mn in | humidity % | barometer mb |
| 20260502191555 | 57 | 340 | 3.0 | 7.0 | 0.00 | 0.00 | 0.00 | 52 | 1024.6 |
| 20260502190053 | 57 | 355 | 5.0 | 9.0 | 0.00 | 0.00 | 0.00 | 52 | 1024.3 |
| 20260502184556 | 58 | 343 | 4.0 | 8.0 | 0.00 | 0.00 | 0.00 | 52 | 1024.2 |
| 20260502183104 | 59 | 338 | 4.0 | 6.0 | 0.00 | 0.00 | 0.00 | 51 | 1024.2 |
| 20260502181553 | 61 | 58 | 2.0 | 5.0 | 0.00 | 0.00 | 0.00 | 48 | 1024.1 |
| 20260502163056 | 68 | 211 | 1.0 | 4.0 | 0.00 | 0.00 | 0.00 | 31 | 1024.3 |
| 20260502161549 | 68 | 118 | 1.0 | 6.0 | 0.00 | 0.00 | 0.00 | 37 | 1024.4 |
| 20260502151604 | 70 | 280 | 1.0 | 8.0 | 0.00 | 0.00 | 0.00 | 35 | 1024.7 |
| 20260502123053 | 69 | 211 | 5.0 | 10.0 | 0.00 | 0.00 | 0.00 | 35 | 1026.4 |
| 20260502121555 | 68 | 55 | 3.0 | 10.0 | 0.00 | 0.00 | 0.00 | 36 | 1026.5 |
| 20260502114607 | 68 | 169 | 4.0 | 8.0 | 0.00 | 0.00 | 0.00 | 36 | 1026.9 |
| 20260502113052 | 68 | 102 | 2.0 | 9.0 | 0.00 | 0.00 | 0.00 | 36 | 1027.1 |
| 20260502111556 | 67 | 117 | 5.0 | 12.0 | 0.00 | 0.00 | 0.00 | 37 | 1027.3 |
| 20260502110055 | 67 | 126 | 2.0 | 6.0 | 0.00 | 0.00 | 0.00 | 36 | 1027.6 |
| 20260502104720 | 67 | 80 | 3.0 | 8.0 | 0.00 | 0.00 | 0.00 | 36 | 1027.7 |
| 20260502104554 | 67 | 80 | 3.0 | 8.0 | 0.00 | 0.00 | 0.00 | 36 | 1027.7 |
| 20260502103055 | 65 | 311 | 1.0 | 7.0 | 0.00 | 0.00 | 0.00 | 37 | 1027.9 |
| 20260502101623 | 66 | 117 | 3.0 | 10.0 | 0.00 | 0.00 | 0.00 | 37 | 1028.2 |
| 20260502090108 | 63 | 190 | 2.0 | 6.0 | 0.00 | 0.00 | 0.00 | 39 | 1028.6 |
| 20260502080107 | 59 | 165 | 3.0 | 8.0 | 0.00 | 0.00 | 0.00 | 43 | 1028.6 |
| 20260502070059 | 58 | 108 | 0.0 | 3.0 | 0.00 | 0.00 | 0.00 | 46 | 1028.8 |
| 20260502064555 | 57 | 0 | 1.0 | 4.0 | 0.00 | 0.00 | 0.00 | 52 | 1028.8 |
| 20260502063057 | 56 | 355 | 0.0 | 2.0 | 0.00 | 0.00 | 0.00 | 47 | 1028.8 |
| 20260502061550 | 54 | 0 | 0.0 | 1.0 | 0.00 | 0.00 | 0.00 | 56 | 1028.8 |
| 20260502060051 | 52 | 0 | 0.0 | 1.0 | 0.00 | 0.00 | 0.00 | 54 | 1028.9 |
| 20260502054558 | 51 | 0 | 0.0 | 2.0 | 0.00 | 0.00 | 0.00 | 55 | 1028.9 |
| 20260502053052 | 51 | 0 | 0.0 | 0.0 | 0.00 | 0.00 | 0.00 | 55 | 1028.8 |
| 20260502051604 | 50 | 0 | 0.0 | 3.0 | 0.00 | 0.00 | 0.00 | 56 | 1028.7 |
| 20260502050054 | 49 | 0 | 0.0 | 3.0 | 0.00 | 0.00 | 0.00 | 55 | 1028.7 |
| 20260502044552 | 48 | 0 | 0.0 | 2.0 | 0.00 | 0.00 | 0.00 | 54 | 1028.7 |
| 20260502043103 | 48 | 19 | 1.0 | 4.0 | 0.00 | 0.00 | 0.00 | 53 | 1028.6 |
| 20260502041600 | 48 | 0 | 0.0 | 3.0 | 0.00 | 0.00 | 0.00 | 53 | 1028.6 |
| 20260502040059 | 48 | 0 | 0.0 | 5.0 | 0.00 | 0.00 | 0.00 | 52 | 1028.7 |
| 20260502034553 | 49 | 327 | 0.0 | 4.0 | 0.00 | 0.00 | 0.00 | 51 | 1028.7 |
| 20260502033059 | 49 | 330 | 2.0 | 7.0 | 0.00 | 0.00 | 0.00 | 50 | 1028.6 |
| 20260502031555 | 49 | 0 | 0.0 | 5.0 | 0.00 | 0.00 | 0.00 | 48 | 1028.7 |
| 20260502030105 | 49 | 343 | 2.0 | 5.0 | 0.00 | 0.00 | 0.00 | 49 | 1028.8 |
| 20260502024741 | 48 | 360 | 2.0 | 3.0 | 0.00 | 0.00 | 0.00 | 49 | 1028.8 |
| 20260502024553 | 48 | 360 | 2.0 | 3.0 | 0.00 | 0.00 | 0.00 | 49 | 1028.8 |
| 20260502023120 | 47 | 360 | 2.0 | 3.0 | 0.00 | 0.00 | 0.00 | 50 | 1028.8 |
| 20260502021557 | 47 | 20 | 1.0 | 3.0 | 0.00 | 0.00 | 0.00 | 50 | 1028.8 |
| 20260502020106 | 47 | 0 | 0.0 | 1.0 | 0.00 | 0.00 | 0.00 | 50 | 1028.9 |
| 20260502014554 | 47 | 286 | 0.0 | 2.0 | 0.00 | 0.00 | 0.00 | 50 | 1028.9 |
| 20260502013104 | 47 | 0 | 0.0 | 2.0 | 0.00 | 0.00 | 0.00 | 50 | 1028.9 |
| 20260502011554 | 48 | 0 | 0.0 | 4.0 | 0.00 | 0.00 | 0.00 | 49 | 1029.0 |
| 20260502010052 | 48 | 0 | 1.0 | 3.0 | 0.00 | 0.00 | 0.00 | 49 | 1029.0 |
| 20260502004618 | 48 | 321 | 0.0 | 4.0 | 0.00 | 0.00 | 0.00 | 49 | 1029.1 |
| 20260502003057 | 48 | 350 | 2.0 | 5.0 | 0.00 | 0.00 | 0.00 | 48 | 1029.1 |
| 20260502001605 | 48 | 338 | 3.0 | 5.0 | 0.00 | 0.00 | 0.00 | 48 | 1029.2 |
| 20260501234606 | 48 | 0 | 0.0 | 1.0 | 0.00 | 0.00 | 0.00 | 49 | 1029.4 |
| 20260501233058 | 48 | 360 | 0.0 | 3.0 | 0.00 | 0.00 | 0.00 | 49 | 1029.4 |
| 20260501231553 | 48 | 9 | 0.0 | 4.0 | 0.00 | 0.00 | 0.00 | 50 | 1029.3 |
| 20260501230051 | 49 | 0 | 0.0 | 5.0 | 0.00 | 0.00 | 0.00 | 51 | 1029.2 |
| 20260501224556 | 49 | 355 | 1.0 | 4.0 | 0.00 | 0.00 | 0.00 | 51 | 1029.2 |
| 20260501223053 | 49 | 334 | 1.0 | 3.0 | 0.00 | 0.00 | 0.00 | 51 | 1029.2 |
| 20260501221554 | 49 | 71 | 0.0 | 2.0 | 0.00 | 0.00 | 0.00 | 50 | 1029.2 |
| 20260501220134 | 50 | 0 | 0.0 | 3.0 | 0.00 | 0.00 | 0.00 | 49 | 1029.0 |
| 20260501214553 | 50 | 0 | 0.0 | 4.0 | 0.00 | 0.00 | 0.00 | 49 | 1028.8 |
| 20260501213101 | 50 | 302 | 2.0 | 5.0 | 0.00 | 0.00 | 0.00 | 49 | 1028.9 |
| 20260501211554 | 50 | 0 | 2.0 | 8.0 | 0.00 | 0.00 | 0.00 | 48 | 1028.9 |
| 20260501210110 | 49 | 11 | 0.0 | 5.0 | 0.00 | 0.00 | 0.00 | 48 | 1028.8 |
| 20260501204559 | 49 | 23 | 2.0 | 6.0 | 0.00 | 0.00 | 0.00 | 51 | 1028.8 |
| 20260501203056 | 49 | 24 | 4.0 | 9.0 | 0.00 | 0.00 | 0.00 | 50 | 1028.7 |
| 20260501201556 | 49 | 360 | 4.0 | 8.0 | 0.00 | 0.00 | 0.00 | 49 | 1028.7 |
| 20260501200055 | 49 | 299 | 4.0 | 8.0 | 0.00 | 0.00 | 0.00 | 49 | 1028.6 |
| 20260501194553 | 49 | 284 | 4.0 | 7.0 | 0.00 | 0.00 | 0.00 | 48 | 1028.5 |
| 20260501193055 | 50 | 297 | 3.0 | 8.0 | 0.00 | 0.00 | 0.00 | 47 | 1028.4 |